Weather History for KDYT - October, 2012

Change the Weather History Date:

Thursday, October 11, 2012

  Actual Average Record
Temperature  
Mean Temperature 40 °F -  
Max Temperature 44 °F 57 °F 80 °F (1955)
Min Temperature 35 °F 37 °F 19 °F (1957)
Degree Days  
Heating Degree Days 26    
Moisture  
Dew Point 30 °F    
Average Humidity 72    
Maximum Humidity 100    
Minimum Humidity 46    
Precipitation  
Precipitation 0.00 in - - ()
Sea Level Pressure  
Sea Level Pressure 30.10 in    
Wind  
Wind Speed 9 mph (WNW)    
Max Wind Speed 22 mph    
Max Gust Speed 28 mph    
Visibility 9 miles    
Events Rain    
Averages and records for this station are not official NWS values.
T = Trace of Precipitation, MM = Missing Value Source: NWS Daily Summary

Daily Weather History Graph

Daily Weather History Graph

Search for Another Location

Airport or City:

Trip Planner

Search our weather history database for the weather conditions in past years. The results will help you decide how hot, cold, wet, or windy it might be!

Date:

Astronomy

Oct. 11, 2012 Rise Set
Actual Time 7:21 AM CDT 6:27 PM CDT
Civil Twilight 6:50 AM CDT 6:58 PM CDT
Nautical Twilight 6:15 AM CDT 7:33 PM CDT
Astronomical Twilight 5:40 AM CDT 8:08 PM CDT
Moon 2:45 AM CDT (10/11) 4:16 PM CDT (10/11)
Length of Visible Light 12h 07m
Length of Day
11h 06m
Waning Crescent, 18% of the Moon is Illuminated
Oct 11
Waning Crescent
Oct 15
New
Oct 21
First Quarter
Oct 29
Full
Nov 6
Last Quarter

Hourly Weather History & Observations

Time (CDT) Temp. Windchill Dew Point Humidity Pressure Visibility Wind Dir Wind Speed Gust Speed Precip Events Conditions
12:13 AM 35.6 °F 31.7 °F 33.8 °F 93% 29.95 in 4.0 mi West 4.6 mph - N/A Rain Light Rain
12:54 AM 37.4 °F - 35.6 °F 93% 29.93 in 5.0 mi Calm Calm - N/A Rain Rain
1:13 AM 37.4 °F - 35.6 °F 93% 29.92 in 5.0 mi Calm Calm - N/A Rain Light Rain
1:34 AM 37.4 °F 33.8 °F 35.6 °F 93% 29.91 in 7.0 mi SE 4.6 mph - N/A Rain Light Rain
1:53 AM 37.4 °F 34.9 °F 35.6 °F 93% 29.91 in 7.0 mi SE 3.5 mph - N/A Rain Light Rain
2:14 AM 37.4 °F 34.9 °F 35.6 °F 93% 29.90 in 7.0 mi SSE 3.5 mph - N/A   Drizzle
2:33 AM 35.6 °F - 35.6 °F 100% 29.91 in 7.0 mi Calm Calm - N/A Rain Rain
2:53 AM 37.4 °F 34.9 °F 35.6 °F 93% 29.90 in 10.0 mi SSE 3.5 mph - N/A   Drizzle
3:14 AM 35.6 °F 32.8 °F 35.6 °F 100% 29.91 in 7.0 mi South 3.5 mph - N/A   Drizzle
3:33 AM 35.6 °F 32.8 °F 33.8 °F 93% 29.91 in 7.0 mi SSW 3.5 mph - N/A   Drizzle
3:54 AM 35.6 °F - 35.6 °F 100% 29.91 in 10.0 mi Calm Calm - N/A   Drizzle
4:14 AM 35.6 °F - 35.6 °F 100% 29.92 in 7.0 mi Calm Calm - N/A   Drizzle
4:33 AM 37.4 °F - 35.6 °F 93% 29.92 in 7.0 mi Calm Calm - N/A   Drizzle
4:54 AM 37.4 °F - 35.6 °F 93% 29.93 in 10.0 mi Calm Calm - N/A   Light Drizzle
5:14 AM 37.4 °F 33.8 °F 35.6 °F 93% 29.94 in 10.0 mi NW 4.6 mph - N/A   Overcast
5:33 AM 35.6 °F 28.0 °F 35.6 °F 100% 29.94 in 10.0 mi NW 10.4 mph - N/A   Overcast
5:54 AM 37.4 °F 30.3 °F 35.6 °F 93% 29.95 in 10.0 mi NW 10.4 mph - N/A   Scattered Clouds
6:14 AM 37.4 °F 29.8 °F 33.8 °F 87% 29.96 in 10.0 mi WNW 11.5 mph - N/A   Scattered Clouds
6:33 AM 35.6 °F 27.5 °F 33.8 °F 93% 29.96 in 10.0 mi WNW 11.5 mph 20.7 mph N/A   Scattered Clouds
6:54 AM 35.6 °F 27.1 °F 33.8 °F 93% 29.97 in 10.0 mi WNW 12.7 mph - N/A   Mostly Cloudy
7:14 AM 35.6 °F 26.6 °F 33.8 °F 93% 29.98 in 10.0 mi WNW 13.8 mph - N/A   Scattered Clouds
7:33 AM 35.6 °F 27.5 °F 33.8 °F 93% 29.99 in 10.0 mi WNW 11.5 mph - N/A   Clear
7:54 AM 37.4 °F 30.3 °F 33.8 °F 87% 30.01 in 10.0 mi West 10.4 mph 16.1 mph N/A   Scattered Clouds
8:13 AM 37.4 °F 30.8 °F 33.8 °F 87% 30.01 in 10.0 mi West 9.2 mph - N/A   Scattered Clouds
8:33 AM 37.4 °F 30.8 °F 33.8 °F 87% 30.03 in 10.0 mi WNW 9.2 mph - N/A   Scattered Clouds
8:54 AM 37.4 °F 30.3 °F 33.8 °F 87% 30.04 in 10.0 mi WNW 10.4 mph - N/A   Scattered Clouds
9:13 AM 37.4 °F 29.3 °F 32.0 °F 81% 30.05 in 10.0 mi WNW 12.7 mph 18.4 mph N/A   Scattered Clouds
9:34 AM 39.2 °F 32.0 °F 32.0 °F 75% 30.06 in 10.0 mi WNW 11.5 mph 19.6 mph N/A   Clear
9:53 AM 39.2 °F 31.6 °F 30.2 °F 70% 30.07 in 10.0 mi WNW 12.7 mph 20.7 mph N/A   Scattered Clouds
10:13 AM 39.2 °F 29.0 °F 30.2 °F 70% 30.08 in 10.0 mi WNW 21.9 mph 26.5 mph N/A   Mostly Cloudy
10:34 AM 39.2 °F 29.8 °F 30.2 °F 70% 30.10 in 10.0 mi WNW 18.4 mph 24.2 mph N/A   Overcast
10:53 AM 39.2 °F 29.6 °F 30.2 °F 70% 30.11 in 10.0 mi WNW 19.6 mph - N/A   Mostly Cloudy
11:13 AM 39.2 °F 29.3 °F 30.2 °F 70% 30.12 in 10.0 mi WNW 20.7 mph 27.6 mph N/A   Mostly Cloudy
11:34 AM 39.2 °F 29.8 °F 28.4 °F 65% 30.14 in 10.0 mi WNW 18.4 mph 23.0 mph N/A   Mostly Cloudy
11:53 AM 39.2 °F 30.2 °F 28.4 °F 65% 30.14 in 10.0 mi West 17.3 mph 21.9 mph N/A   Overcast
12:14 PM 41.0 °F 32.5 °F 30.2 °F 65% 30.14 in 10.0 mi WNW 17.3 mph - N/A   Mostly Cloudy
12:53 PM 41.0 °F 32.5 °F 28.4 °F 61% 30.15 in 10.0 mi NW 17.3 mph 24.2 mph N/A   Mostly Cloudy
1:14 PM 41.0 °F 32.8 °F 28.4 °F 61% 30.15 in 10.0 mi NW 16.1 mph 23.0 mph N/A   Mostly Cloudy
1:34 PM 42.8 °F 34.5 °F 28.4 °F 57% 30.15 in 10.0 mi NW 18.4 mph 24.2 mph N/A   Mostly Cloudy
1:53 PM 42.8 °F 34.0 °F 28.4 °F 57% 30.16 in 10.0 mi WNW 20.7 mph 26.5 mph N/A   Mostly Cloudy
2:14 PM 42.8 °F 35.1 °F 26.6 °F 53% 30.17 in 10.0 mi NW 16.1 mph 25.3 mph N/A   Mostly Cloudy
2:33 PM 42.8 °F 34.8 °F 26.6 °F 53% 30.18 in 10.0 mi NW 17.3 mph 25.3 mph N/A   Mostly Cloudy
2:54 PM 42.8 °F 34.8 °F 26.6 °F 53% 30.19 in 10.0 mi WNW 17.3 mph 24.2 mph N/A   Overcast
3:13 PM 42.8 °F 35.4 °F 26.6 °F 53% 30.19 in 10.0 mi WNW 15.0 mph 21.9 mph N/A   Mostly Cloudy
3:34 PM 42.8 °F 34.5 °F 26.6 °F 53% 30.19 in 10.0 mi WNW 18.4 mph 21.9 mph N/A   Scattered Clouds
3:54 PM 44.6 °F 37.2 °F 26.6 °F 49% 30.19 in 10.0 mi WNW 17.3 mph - N/A   Scattered Clouds
4:13 PM 44.6 °F 36.6 °F 26.6 °F 49% 30.19 in 10.0 mi WNW 19.6 mph - N/A   Scattered Clouds
4:54 PM 44.6 °F 37.2 °F 26.6 °F 49% 30.20 in 10.0 mi WNW 17.3 mph 20.7 mph N/A   Scattered Clouds
5:13 PM 44.6 °F 37.8 °F 24.8 °F 46% 30.21 in 10.0 mi NW 15.0 mph - N/A   Scattered Clouds
5:34 PM 44.6 °F 37.8 °F 24.8 °F 46% 30.22 in 10.0 mi NW 15.0 mph 21.9 mph N/A   Scattered Clouds
5:54 PM 44.6 °F 36.9 °F 24.8 °F 46% 30.22 in 10.0 mi WNW 18.4 mph 21.9 mph N/A   Scattered Clouds
6:13 PM 42.8 °F 35.4 °F 24.8 °F 49% 30.24 in 10.0 mi WNW 15.0 mph - N/A   Clear
6:34 PM 42.8 °F 35.8 °F 24.8 °F 49% 30.24 in 10.0 mi NW 13.8 mph - N/A   Clear
6:53 PM 42.8 °F 35.1 °F 24.8 °F 49% 30.25 in 10.0 mi WNW 16.1 mph - N/A   Clear
7:13 PM 42.8 °F 35.4 °F 24.8 °F 49% 30.26 in 10.0 mi NW 15.0 mph 20.7 mph N/A   Clear
7:34 PM 41.0 °F 32.2 °F 24.8 °F 53% 30.27 in 10.0 mi NW 18.4 mph - N/A   Clear
7:53 PM 41.0 °F 33.9 °F 24.8 °F 53% 30.28 in 10.0 mi NW 12.7 mph - N/A   Clear
8:14 PM 41.0 °F 33.1 °F 24.8 °F 53% 30.29 in 10.0 mi NW 15.0 mph - N/A   Clear
8:34 PM 39.2 °F 32.5 °F 23.0 °F 52% 30.30 in 10.0 mi NW 10.4 mph - N/A   Clear
8:53 PM 39.2 °F 31.6 °F 24.8 °F 56% 30.30 in 10.0 mi WNW 12.7 mph - N/A   Clear
9:14 PM 39.2 °F 33.6 °F 24.8 °F 56% 30.31 in 10.0 mi NW 8.1 mph - N/A   Clear
9:53 PM 37.4 °F 33.8 °F 26.6 °F 65% 30.32 in 10.0 mi South 4.6 mph - N/A   Clear
10:54 PM 35.6 °F 30.7 °F 24.8 °F 65% 30.35 in 10.0 mi SSW 5.8 mph - N/A   Clear
11:13 PM 35.6 °F 30.7 °F 26.6 °F 70% 30.35 in 10.0 mi SSW 5.8 mph - N/A   Clear
11:34 PM 35.6 °F 30.7 °F 24.8 °F 65% 30.36 in 10.0 mi SW 5.8 mph - N/A   Clear
11:54 PM 35.6 °F 30.7 °F 24.8 °F 65% 30.36 in 10.0 mi SW 5.8 mph - N/A   Clear